Regional Weather Roundup
Issued by NWS

Home | Current Version | Previous Version | Graphics & Text | Print | Product List | Glossary On
Versions: 1 2 3 4 5 6 7 8 9 10 11 12 13 14 15 16 17 18 19 20 21 22 23 24 25 26 27
000
ASUS45 KCYS 171710
RWRWY

WYOMING REGIONAL WEATHER ROUNDUP
NATIONAL WEATHER SERVICE CHEYENNE WY
1000 AM MST TUE JAN 17 2017

NOTE:  "FAIR" INDICATES FEW OR NO CLOUDS BELOW 12,000 FEET
WITH NO SIGNIFICANT WEATHER AND/OR OBSTRUCTIONS TO VISIBILITY.

WYZ001-171800-
YELLOWSTONE NATIONAL PARK

CITY           SKY/WX    TMP DP  RH WIND       PRES   REMARKS
LK YELLOWSTONE   N/A     -5  -8  87 CALM      30.20R
W YELLOWSTONE  NOT AVBL

$$
WYZ002>013-054>058-071-098>099-171800-
NORTHERN WYOMING

CITY           SKY/WX    TMP DP  RH WIND       PRES   REMARKS
JACKSON        MOSUNNY   -4  -6  92 CALM      30.27R
CODY           FAIR      16   6  65 CALM      29.99F
GREYBULL       FAIR      -7 -13  75 CALM      30.09S
WORLAND        FAIR       1  -2  87 CALM      30.06R
SHERIDAN       FAIR      21   8  57 VRB6      29.89F WCI  13
BUFFALO        FAIR      37   8  30 S3        29.92F
GILLETTE       FAIR      32  13  45 SW22      29.92F WCI  19
HULETT         FAIR      28  12  50 SW9       29.93S WCI  20
NEWCASTLE      FAIR      23  10  58 CALM      29.99S

$$
WYZ014>020-022>026-101>103-171800-
CENTRAL WYOMING

CITY           SKY/WX    TMP DP  RH WIND       PRES   REMARKS
BIG PINEY      FAIR     -12 -12 100 CALM      30.17S
PINEDALE       FAIR      -8 -13  77 CALM      30.17S
DUBOIS         NOT AVBL
LANDER         FAIR       5   2  87 SE5       30.10R FOG     WCI  -4
RIVERTON       FAIR       0  -3  87 SW3       30.12R FOG
CASPER         FLURRIES  28   7  41 SW32G45   30.03S WCI  12
DOUGLAS        FAIR      23  15  71 CALM      30.01S

$$
WYZ021-027>030-104>119-171800-
SOUTHERN WYOMING

CITY           SKY/WX    TMP DP  RH WIND       PRES   REMARKS
EVANSTON       FAIR      10   4  76 S3        30.17R
ROCK SPRINGS   FAIR      -5 -11  75 CALM      30.18R HAZE
RAWLINS        FAIR       7   1  76 CALM      30.17R
LARAMIE        FAIR       6   3  87 CALM      30.08R
CHEYENNE       FAIR      37  19  48 SW7       30.03S WCI  32
TORRINGTON     FAIR      27  16  63 CALM      30.02S

$$




USA.gov is the U.S. government's official web portal to all federal, state and local government web resources and services.